Flag for Japan Weather past 2 weeks in Kumamoto, Japan

Now
47 °F

Cool.


Feels Like: 46 °F
Forecast: 40 / 52 °F
Wind: 3 mph from North

Location: Kumamoto

Current Time: Mar 1, 2015 at 1:09:22 AM

Latest Report: Mar 1, 2015 at 12:00 AM


Visibility: N/A

Pressure: 30.03 "Hg

Humidity: 96%

Dew point: 46 °F

Location of KumamotoLocation

Historic Weather in Kumamoto — Graph

°F

Kumamoto temperature yesterday

Maximum temperature yesterday: 58 °F (at 2:00 PM)
Minimum temperature yesterday: 38 °F (at 4:00 AM)
Average temperature yesterday: 46 °F

Past Weeks' High & Low Weather Summary

 TemperatureHumidityPressure
High58 °F (Feb 16, 4:00 PM)100% (Feb 22, 7:00 AM)30.34 "Hg (Feb 22, 7:00 AM)
Low29 °F (Feb 14, 7:00 AM)30% (Feb 14, 3:00 PM)29.83 "Hg (Feb 16, 4:00 PM)
Average47 °F71%30.11 "Hg
* Reported Feb 13 11:00 PM — Feb 28 11:00 PM, Kumamoto, Weather by CustomWeather, © 2015

Note: Actual official high and low records may vary slightly from our data, if they occured in-between our weather recording intervals... More about our weather records

Advertising

Kumamoto weather history for previous 24 hours

 ConditionsComfort  
Time TempWeatherWind HumidityBarometerVisibility
11:00 PM
Sat, Feb 28
47 °FCool.6 mph94%30.05 "HgN/A
10:00 PM47 °FCool.6 mph92%30.08 "HgN/A
9:00 PM47 °FLight rain. Overcast.6 mph89%30.10 "Hg9 mi
8:00 PM48 °FCool.5 mph89%30.12 "HgN/A
7:00 PM49 °FCool.3 mph80%30.13 "HgN/A
6:00 PM51 °FLight rain. Overcast.3 mph69%30.14 "Hg12 mi
5:00 PM51 °FCool.5 mph63%30.15 "HgN/A
4:00 PM56 °FRefreshingly cool.5 mph38%30.13 "HgN/A
3:00 PM57 °FOvercast.3 mph36%30.14 "Hg16 mi
2:00 PM58 °FRefreshingly cool.3 mph35%30.16 "HgN/A
1:00 PM56 °FRefreshingly cool.3 mph36%30.20 "HgN/A
11:00 AM51 °FCool.9 mph38%30.28 "HgN/A
10:00 AM48 °FCool.7 mph42%30.29 "HgN/A
9:00 AM45 °FPassing clouds.12 mph52%30.30 "Hg19 mi
8:00 AM41 °FQuite cool.5 mph53%30.29 "HgN/A
7:00 AM39 °FChilly.7 mph56%30.29 "HgN/A
6:00 AM39 °FPassing clouds.8 mph54%30.28 "Hg19 mi
5:00 AM39 °FChilly.12 mph53%30.27 "HgN/A
4:00 AM38 °FChilly.12 mph53%30.27 "HgN/A
3:00 AM40 °FClear.8 mph50%30.27 "Hg19 mi
2:00 AM39 °FChilly.9 mph53%30.27 "HgN/A
1:00 AM39 °FChilly.5 mph55%30.28 "HgN/A
Weather by CustomWeather, © 2015

See weather overviewHow to use our weather pages